MD4008 Weather Reports


time (UTC)temp
F
wind
direction
speed
knots
gust
knots
rain 1hr
in
rain 24hr
in
rain mn
in
humidity
%
barometer
mb
20260506174533 34 114 0.0 0.0 0.00 0.00 0.00 81 1024.0
20260506173108 33 109 0.0 0.0 0.00 0.00 0.00 76 1024.1
20260506171525 34 92 0.0 0.0 0.00 0.00 0.00 73 1024.0
20260506170057 35 92 0.0 0.0 0.00 0.00 0.00 74 1024.0
20260506164613 36 92 0.0 0.0 0.00 0.00 0.00 81 1024.0
20260506163019 34 92 0.0 0.0 0.00 0.00 0.00 79 1023.9
20260506161527 33 92 0.0 0.0 0.00 0.00 0.00 82 1023.7
20260506160109 32 92 0.0 0.0 0.00 0.00 0.00 84 1023.7
20260506154605 31 92 0.0 0.0 0.00 0.00 0.00 83 1023.7
20260506153015 31 91 0.0 0.0 0.00 0.00 0.00 86 1023.5
20260506151544 30 91 0.0 0.0 0.00 0.00 0.00 85 1023.3
20260506150105 30 91 0.0 0.0 0.00 0.00 0.00 88 1023.1
20260506144513 29 91 0.0 0.0 0.00 0.00 0.00 89 1023.3
20260506143034 28 91 0.0 0.0 0.00 0.00 0.00 88 1023.4
20260506141600 28 91 0.0 0.0 0.00 0.00 0.00 92 1023.3
20260506140123 27 91 0.0 0.0 0.00 0.00 0.00 92 1023.2
20260506134531 27 91 0.0 0.0 0.00 0.00 0.00 93 1023.1
20260506133051 26 91 0.0 0.0 0.00 0.00 0.00 93 1023.0
20260506131521 26 91 0.0 0.0 0.00 0.00 0.00 93 1022.8
20260506130043 25 91 0.0 0.0 0.00 0.00 0.00 94 1022.5
20260506124601 25 91 0.0 0.0 0.00 0.00 0.00 93 1022.3
20260506123022 25 91 0.0 0.0 0.00 0.00 0.00 93 1022.1
20260506121558 24 91 0.0 0.0 0.00 0.00 0.00 93 1021.7
20260506120124 24 91 0.0 0.0 0.00 0.00 0.00 93 1021.7
20260506114532 24 91 0.0 0.0 0.00 0.00 0.00 93 1021.6
20260506113042 25 91 0.0 0.0 0.00 0.00 0.00 92 1021.3
20260506111505 25 98 0.0 0.0 0.00 0.00 0.00 93 1020.9
20260506110013 25 98 0.0 0.0 0.00 0.00 0.00 93 1020.8
20260506104538 25 99 0.0 0.0 0.00 0.00 0.00 94 1020.8
20260506103013 25 99 0.0 0.0 0.00 0.00 0.00 94 1020.4
20260506101538 25 127 0.0 0.0 0.00 0.00 0.00 95 1020.5
20260506100108 25 127 0.0 0.0 0.00 0.00 0.00 95 1020.3
20260506094512 25 128 0.0 0.0 0.00 0.00 0.00 95 1020.2
20260506093039 25 128 0.0 0.0 0.00 0.00 0.00 95 1020.4
20260506091506 25 128 0.0 0.0 0.00 0.00 0.00 95 1020.3
20260506084555 25 128 0.0 0.0 0.00 0.00 0.00 95 1020.3
20260506083017 26 128 0.0 0.0 0.00 0.00 0.00 95 1020.3
20260506081523 26 128 0.0 0.0 0.00 0.00 0.00 95 1020.3
20260506080106 26 127 0.0 0.0 0.00 0.00 0.00 95 1020.1
20260506073033 26 127 0.0 0.0 0.00 0.00 0.00 95 1020.3
20260506071539 27 126 0.0 0.0 0.00 0.00 0.00 95 1020.0
20260506070105 27 127 0.0 0.0 0.00 0.00 0.00 95 1019.9
20260506061504 27 127 0.0 0.0 0.00 0.00 0.00 95 1019.8
20260506050103 27 127 0.0 0.0 0.00 0.00 0.00 95 1018.9
20260506044600 27 127 0.0 0.0 0.00 0.00 0.00 95 1018.5
20260506043106 27 126 0.0 0.0 0.00 0.00 0.00 95 1018.4
20260506041529 27 130 0.0 0.0 0.00 0.00 0.00 95 1018.4
20260506040104 28 126 0.0 0.0 0.00 0.00 0.00 95 1018.4
20260506034521 28 107 0.0 0.0 0.00 0.00 0.00 95 1017.9
20260506033049 28 169 0.0 0.0 0.00 0.00 0.00 95 1017.5
20260506031607 28 169 0.0 0.0 0.00 0.00 0.00 95 1017.3
20260506030123 28 169 0.0 0.0 0.00 0.00 0.00 95 1017.0
20260506024554 28 169 0.0 0.0 0.00 0.00 0.00 95 1016.5
20260506023058 28 169 0.0 0.0 0.00 0.00 0.00 95 1016.3
20260506021528 28 169 0.0 0.0 0.00 0.00 0.00 94 1015.7
20260506020052 28 169 0.0 0.0 0.00 0.00 0.00 94 1015.3
20260506014558 29 169 0.0 0.0 0.00 0.00 0.00 94 1015.1
20260506013037 29 169 0.0 0.0 0.00 0.00 0.00 94 1014.9
20260506011606 28 169 0.0 0.0 0.00 0.00 0.00 94 1014.6
20260506010121 28 169 0.0 0.0 0.00 0.00 0.00 94 1014.4
20260506004604 29 169 0.0 0.0 0.00 0.00 0.00 94 1014.3
20260506003033 29 169 0.0 0.0 0.00 0.00 0.00 94 1014.1
20260506001601 29 169 0.0 0.0 0.00 0.00 0.00 94 1014.0
20260506000008 29 169 0.0 0.0 0.00 0.00 0.00 93 1013.7
20260505234540 29 169 0.0 0.0 0.00 0.00 0.00 93 1013.7
20260505233040 30 169 0.0 0.0 0.00 0.00 0.00 93 1013.7
20260505231502 30 169 0.0 0.0 0.00 0.00 0.00 92 1013.6
20260505230006 31 169 0.0 0.0 0.00 0.00 0.00 93 1013.4
20260505224531 31 169 0.0 0.0 0.00 0.00 0.00 93 1013.2
20260505223053 31 169 0.0 0.0 0.00 0.00 0.00 93 1013.1
20260505221504 31 169 0.0 0.0 0.00 0.00 0.00 93 1012.7
20260505220041 31 169 0.0 0.0 0.00 0.00 0.00 94 1012.7
20260505214541 31 169 0.0 0.0 0.00 0.00 0.00 94 1012.4
20260505213006 30 169 0.0 0.0 0.00 0.00 0.00 94 1012.5
20260505211532 30 169 0.0 0.0 0.00 0.00 0.00 94 1012.3
20260505210104 30 169 0.0 0.0 0.00 0.00 0.00 94 1012.3
20260505204553 30 169 0.0 0.0 0.00 0.00 0.00 93 1012.2
20260505203014 30 169 0.0 0.0 0.00 0.00 0.00 93 1012.4
20260505201518 30 169 0.9 0.0 0.00 0.00 0.00 94 1012.4
20260505200051 30 136 0.0 0.0 0.00 0.00 0.00 94 1012.2
20260505194613 30 135 0.9 0.0 0.00 0.00 0.00 94 1012.0
20260505193019 30 138 0.0 0.0 0.00 0.00 0.00 95 1012.0
20260505191542 29 138 0.9 0.0 0.00 0.00 0.00 94 1012.0
20260505190110 29 139 1.7 0.0 0.00 0.00 0.00 94 1012.0
20260505184514 29 157 1.7 0.0 0.00 0.00 0.00 94 1011.7
20260505183056 28 142 3.5 0.0 0.00 0.00 0.00 94 1011.6
20260505181511 29 155 1.7 0.0 0.00 0.00 0.00 94 1011.4
20260505180046 29 144 2.6 0.0 0.00 0.00 0.00 94 1011.1